TimeCDT,TemperatureF,Dew PointF,Humidity,Sea Level PressureIn,VisibilityMPH,Wind Direction,Wind SpeedMPH,Gust SpeedMPH,PrecipitationIn,Events,Conditions,WindDirDegrees,DateUTC
12:14 AM,55.4,53.6,94,29.95,10.0,North,9.2,-,N/A,,Overcast,10,2013-10-04 05:14:00
12:34 AM,55.4,53.6,94,29.94,10.0,North,10.4,-,N/A,,Overcast,10,2013-10-04 05:34:00
12:54 AM,55.4,53.6,94,29.94,10.0,North,10.4,-,N/A,,Overcast,10,2013-10-04 05:54:00
1:14 AM,55.4,53.6,94,29.94,10.0,North,11.5,16.1,N/A,,Overcast,10,2013-10-04 06:14:00
1:34 AM,55.4,53.6,94,29.95,10.0,NNE,9.2,-,N/A,,Overcast,20,2013-10-04 06:34:00
1:54 AM,55.4,53.6,94,29.94,10.0,NNE,13.8,17.3,N/A,,Overcast,30,2013-10-04 06:54:00
2:14 AM,55.4,53.6,94,29.95,4.0,NNE,9.2,-,N/A,,Overcast,30,2013-10-04 07:14:00
2:34 AM,55.4,53.6,94,29.96,4.0,NNE,9.2,-,N/A,,Overcast,20,2013-10-04 07:34:00
2:54 AM,55.4,53.6,94,29.96,5.0,NNE,9.2,-,N/A,,Overcast,20,2013-10-04 07:54:00
3:14 AM,55.4,55.4,100,29.95,5.0,NNE,10.4,-,N/A,,Overcast,20,2013-10-04 08:14:00
3:34 AM,55.4,55.4,100,29.94,7.0,NNE,9.2,-,N/A,,Overcast,30,2013-10-04 08:34:00
3:54 AM,55.4,55.4,100,29.95,10.0,NNE,8.1,-,N/A,,Overcast,20,2013-10-04 08:54:00
4:14 AM,55.4,55.4,100,29.95,10.0,NNE,8.1,-,N/A,,Overcast,30,2013-10-04 09:14:00
4:34 AM,55.4,55.4,100,29.95,10.0,NE,8.1,-,N/A,,Overcast,40,2013-10-04 09:34:00
4:54 AM,55.4,55.4,100,29.95,10.0,NE,8.1,-,N/A,,Overcast,40,2013-10-04 09:54:00
5:14 AM,55.4,55.4,100,29.97,10.0,NNE,6.9,-,N/A,,Overcast,30,2013-10-04 10:14:00
5:34 AM,55.4,55.4,100,29.96,10.0,NNE,8.1,-,N/A,,Overcast,30,2013-10-04 10:34:00
5:54 AM,55.4,55.4,100,29.97,10.0,NNE,6.9,-,N/A,,Overcast,30,2013-10-04 10:54:00
6:14 AM,55.4,55.4,100,29.96,10.0,NNE,8.1,-,N/A,,Overcast,30,2013-10-04 11:14:00
6:33 AM,55.4,55.4,100,29.97,10.0,NNE,6.9,-,N/A,,Overcast,30,2013-10-04 11:33:00
6:54 AM,55.4,53.6,94,29.97,10.0,NNE,6.9,-,N/A,,Overcast,30,2013-10-04 11:54:00
7:45 AM,57.2,53.6,88,29.98,10.0,NNE,5.8,-,N/A,,Overcast,30,2013-10-04 12:45:00
8:45 AM,57.2,53.6,88,29.99,10.0,NNE,8.1,-,N/A,,Overcast,30,2013-10-04 13:45:00
9:45 AM,57.2,53.6,88,29.97,10.0,NE,15.0,-,N/A,,Overcast,50,2013-10-04 14:45:00
10:45 AM,57.2,53.6,88,29.97,10.0,NE,13.8,-,N/A,,Overcast,50,2013-10-04 15:45:00
11:45 AM,57.2,55.4,94,29.99,10.0,NE,11.5,-,N/A,,Overcast,50,2013-10-04 16:45:00
12:45 PM,59.0,55.4,88,30.00,10.0,ENE,12.7,18.4,N/A,,Overcast,60,2013-10-04 17:45:00
1:45 PM,59.0,55.4,88,29.98,10.0,ENE,11.5,17.3,N/A,,Overcast,70,2013-10-04 18:45:00
2:55 PM,60.8,55.4,82,29.93,10.0,ENE,19.6,26.5,N/A,,Overcast,60,2013-10-04 19:55:00
3:45 PM,60.8,53.6,77,29.94,10.0,ENE,20.7,28.8,N/A,,Overcast,60,2013-10-04 20:45:00
4:45 PM,60.8,55.4,82,29.94,10.0,East,15.0,20.7,N/A,,Overcast,80,2013-10-04 21:45:00
5:45 PM,60.8,55.4,82,29.94,10.0,ENE,9.2,19.6,N/A,,Overcast,70,2013-10-04 22:45:00
6:50 PM,59.0,55.4,88,29.92,10.0,NE,11.5,23.0,N/A,,Overcast,50,2013-10-04 23:50:00
7:50 PM,59.0,55.4,88,29.93,10.0,ENE,9.2,-,N/A,,Overcast,60,2013-10-05 00:50:00
9:13 PM,59.0,55.4,88,29.91,10.0,ENE,18.4,23.0,N/A,,Light Drizzle,60,2013-10-05 02:13:00
9:34 PM,59.0,55.4,88,29.89,10.0,ENE,16.1,23.0,N/A,Rain,Light Rain,60,2013-10-05 02:34:00
9:54 PM,57.2,55.4,94,29.88,7.0,ENE,18.4,26.5,0.01,Rain,Light Rain,70,2013-10-05 02:54:00
10:13 PM,57.2,57.2,100,29.88,10.0,ENE,16.1,25.3,0.01,Rain,Light Rain,70,2013-10-05 03:13:00
10:34 PM,57.2,57.2,100,29.88,10.0,East,15.0,25.3,0.01,,Overcast,80,2013-10-05 03:34:00
10:54 PM,57.2,57.2,100,29.87,7.0,East,15.0,21.9,0.02,Rain,Heavy Rain,80,2013-10-05 03:54:00
11:13 PM,57.2,57.2,100,29.88,10.0,East,16.1,19.6,0.01,Rain,Light Rain,80,2013-10-05 04:13:00
11:34 PM,57.2,57.2,100,29.86,10.0,East,12.7,23.0,0.04,Rain,Rain,90,2013-10-05 04:34:00
11:54 PM,59.0,57.2,94,29.88,10.0,East,10.4,-,0.09,Rain,Rain,100,2013-10-05 04:54:00